sat.trackr.live / text

‹ back to catalog

STARLINK-36209

NORAD 67022 · 2025-293V

PAYLOAD ACTIVE UNKNOWN

§ Identity

Operator
Country
US
Launch date
2025-12-10
Launch site
AFWTR
Launch vehicle
Mass (kg)
RCS (m²)

Purposes: comms

External: N2YO · Heavens-Above · Gunter

§ Orbital elements

Epoch: 2026-05-24T18:02:01.214016Z

Period
96.11 min
Inclination
70.0007°
Eccentricity
0.0003049
Mean motion
14.98338825 rev/d
Perigee alt
569.9 km
Apogee alt
574.1 km
Semi-major
6,950.2 km
B*
2.6770e-4
RAAN
262.5717°
Arg perigee
270.9622°
Mean anomaly
89.1187°
Rev number
2,628

§ Raw data

STARLINK-362091 67022U 25293V   26144.75140294  .00003103  00000+0  26770-3 0  99982 67022  70.0007 262.5717 0003049 270.9622  89.1187 14.98338825 26280

JSON: /api/v1/satellites/67022 · /tle

For live sub-satellite position, see the globe view (requires WebGL).

§ Visibility from observer

Set your observer location to see the next 7 days of passes ≥ 10°. The values pass through the URL so the page stays shareable.

No JS? Fill the form by hand. The geolocation button needs JavaScript.